Regional Weather Roundup
Issued by NWS Wakefield, VA

Home | Current Version | Previous Version | Graphics & Text | Print | Product List | Glossary On
Versions: 1 2 3 4 5 6 7 8 9 10 11 12 13 14 15 16 17 18 19 20 21 22 23 24 25 26 27 28 29 30 31 32 33 34 35 36 37 38 39 40 41 42 43 44 45 46 47 48 49 50
000
ASUS41 KAKQ 041215
RWRAKQ

REGIONAL WEATHER ROUNDUP
NATIONAL WEATHER SERVICE WAKEFIELD VA
800 AM EDT TUE AUG 04 2015

Note: "fair" indicates few or no clouds below 12,000 feet with no
significant weather and/or obstructions to visibility. * = Denotes
station may not report precipitation (e.g., rain,snow,etc.),
thunder or fog.

VAZ042-051-052>054-056-041300-
NORTHERN VIRGINIA

CITY           SKY/WX    TMP DP  RH WIND       PRES   REMARKS
WASH NATIONAL  PTSUNNY   80  62  54 W5        29.93R
DULLES         MOSUNNY   72  63  73 S5        29.93R
FORT BELVOIR   PTSUNNY   71  67  84 CALM      29.93S
QUANTICO       NOT AVBL
FREDERICKSBRG* MOSUNNY   77  71  80 CALM      29.93R
STAFFORD*      MOSUNNY   74  68  82 CALM      29.97S
WARRENTON      PTSUNNY   76  69  79 CALM      29.93S
CULPEPER*      SUNNY     72  67  86 CALM      29.95R
MANASSAS*      SUNNY     72  66  83 CALM      29.93R
LEESBURG*      SUNNY     72  68  88 CALM      29.94R
WINCHESTER     SUNNY     72  68  88 W5        29.95R
FRONT ROYAL*   FAIR      70  64  83 CALM      29.94R
LURAY*         FAIR      75  66  73 CALM      29.96S
$$

VAZ048-049-060>072-079>083-041300-
CENTRAL AND SOUTH CENTRAL VIRGINIA

CITY           SKY/WX    TMP DP  RH WIND       PRES   REMARKS
RICHMOND       PTSUNNY   78  70  76 SW9       29.95S
CHESTERFIELD*  FAIR      77  63  61 S9        29.97S
PETERSBURG*    MOSUNNY   77  76  96 S7        29.98S
HANOVER        SUNNY     77  70  79 SW9       29.96S
TAPPAHANNOCK*  SUNNY     77  69  75 CALM      29.95R
QUINTON*       FAIR      77  72  83 SW6       29.95R
CHARLOTTSVILLE SUNNY     74  65  73 S6        29.95R
GORDONSVILLE*  FAIR      72  66  83 SW5       29.95R
ORANGE*        SUNNY     73  68  83 S5        29.96R
LOUISA*        SUNNY     75  70  83 SW5       29.95R
BUMPASS*       FAIR      74  70  86 SW6       29.95R
FARMVILLE*     MOSUNNY   75  73  93 S8        29.96S
CREWE*         FAIR     N/A N/A N/A SW7       29.97R
FORT PICKETT*  FAIR      75  72  88 SW9       29.98S
CHASE CITY*    FAIR      77  75  93 W5        29.99R
CLARKSVILLE*   FAIR      75  72  88 S5        29.98R
SOUTH HILL*    SUNNY     74  72  91 SW7       30.04S
LAWRENCEVILLE* FAIR      75  73  94 SW7       29.98S
EMPORIA*       MOSUNNY   73  72  94 CALM      30.00R
$$

VAZ088>098-041300-
SOUTHEAST VIRGINIA

CITY           SKY/WX    TMP DP  RH WIND       PRES   REMARKS
NORFOLK        CLOUDY    79  73  82 SW15      29.98S
VIRGINIA BEACH PTSUNNY   82  75  79 SW16      29.98S
NORFOLK NAVAL  CLOUDY    77  74  90 SW10      30.00S
WEST POINT*    SUNNY     80  71  75 S6        29.96S
SALUDA*        FAIR      77  72  85 SW10G17   29.94R
NEWPORT NEWS   MOSUNNY   79  74  84 SW15      29.97F
LANGLEY AFB    MOSUNNY   79  74  83 SW13      29.97F
FORT EUSTIS    MOSUNNY   78  78 100 S8        29.95S
WILLIAMSBURG*  MOSUNNY   81  75  83 SW8       29.98R
HR EXEC AP*    CLOUDY    75  72  88 SW8       30.01F
FRANKLIN*      MOSUNNY   75  73  92 S7        29.99F
WAKEFIELD      MOSUNNY   77  73  87 VRB7      29.97F
$$

VAZ020-022-025-037-045-041300-
WEST CENTRAL AND SOUTHWEST VIRGINIA

CITY           SKY/WX    TMP DP  RH WIND       PRES   REMARKS
STAUNTON*      MOSUNNY   73  64  73 CALM      30.00S
WAYNESBORO*    FAIR      74  60  61 W6        30.00S
HOT SPRINGS VA MOSUNNY   67  54  63 W9        30.11R
LYNCHBURG      MOSUNNY   72  67  84 S6        30.00S
DANVILLE       SUNNY     74  70  87 SW6       30.00R
SOUTH BOSTON*  FAIR      75  71  87 W3        29.99R
MARTINSVILLE   SUNNY     72  72 100 CALM      30.04R
ROANOKE        MOSUNNY   76  62  62 W6        30.02R
BLACKSBURG     SUNNY     70  64  81 CALM      30.08S
DUBLIN*          N/A     71  65  80 W3        30.07S
MARION*        MOSUNNY   67  62  83 W5        30.11R
HILLSVILLE*    MOSUNNY   66  59  79 CALM      30.08S
RICHLANDS*     FAIR      69  63  80 SW6       30.09R
WISE*          MOSUNNY   70  61  73 SW5       30.10R
ABINGDON*      MOSUNNY   68  62  80 CALM      30.08R
$$

MDZ021>025-VAZ099-100-041300-
SOUTHERN MARYLAND AND THE DELMARVA PENINSULA

CITY           SKY/WX    TMP DP  RH WIND       PRES   REMARKS
PATUXENT RIVER MOSUNNY   79  71  76 W9        29.92R
BAY BRIDGE APT   N/A     75  63  64 S3        29.91R
LEONARDTOWN    MOSUNNY   77  70  78 CALM      29.95F
DOVER          PTSUNNY   78  78 100 S10       29.88F
GEORGETOWN     MOSUNNY   79  74  84 SW9       29.92S
EASTON         SUNNY     81  72  74 SW6       29.95S
CAMBRIDGE      MOSUNNY   79  72  78 SW6       29.92S
SALISBURY      MOSUNNY   79  74  84 SW8       29.93R
OCEAN CITY     PTSUNNY   80  74  81 SW9       29.93S
WALLOPS ISLAND MOSUNNY   79  74  84 SW7       29.95R
ACCOMACK*      SUNNY    N/A N/A N/A SW13G18   29.94F
$$

NCZ012>017-030>032-041300-
NORTH CENTRAL AND EASTERN NORTH CAROLINA

CITY           SKY/WX    TMP DP  RH WIND       PRES   REMARKS
ROANOKE RAPIDS FAIR      73  72  94 S6        30.00R
RALEIGH        MOSUNNY   79  73  83 SW6       30.00S
ELIZABETH CITY PTSUNNY   81  77  88 SW9       30.01R
AHOSKIE*       CLOUDY    75  73  95 S5        30.00F
EDENTON*         N/A     79  76  91 SW5       30.01S
CURRITUCK*     SUNNY     81  75  84 SW9       30.01S
KILL DEVIL HLS SUNNY     80  77  90 SW5       30.01R
MANTEO         SUNNY     80  77  91 SW10      30.01S
CAPE HATTERAS  PTSUNNY   80  76  87 SW7       30.03R
TARBORO*         N/A     75  73  95 CALM      30.01S
GOLDSBORO      MOSUNNY   77  77  98 SE5       29.98R
WASHINGTON     MOSUNNY   78  76  95 CALM      30.02R
GREENVILLE     PTSUNNY   79  77  94 CALM      30.03R
NEW BERN       CLOUDY    80  75  84 S3        30.03R
WILMINGTON     LGT RAIN  80  76  87 VRB7      29.98F
$$

VAZ048-041300-
ELSEWHERE

CITY           SKY/WX    TMP DP  RH WIND       PRES   REMARKS
HARRISBURG PA  NOT AVBL
BALTIMORE      MOSUNNY   71  67  87 W5        29.91R
ANNAPOLIS      MOSUNNY   75  62  64 SW3       29.91R
ANDREWS AFB    PTSUNNY   74  63  67 S5        29.92S
PHILADELPHIA   CLOUDY    77  69  76 SW8       29.87S
HENDERSON NC   SUNNY     75  70  84 S5        29.99S
GREENSBORO     PTSUNNY   75  70  84 W6        30.01R
ROCKY MOUNT    CLOUDY    76  74  93 S3        30.01S
$$

VAZ100-041300-
MARINE

STATION/POSITION TIME  TEMP    WIND        PRES    WAVE   SWELL
                       AIR SEA DIR/SP/G            HT/PER HT/PER
                 (UTC) (F)     (DEG/KT/KT) (MB)    (FT/S) (FT/S)
BRANDYWINE LGT   1100   77 76  250/ 10/ 11 1013.1R
CAPE MAY NJ      1100   77 77  230/  6/  7 1012.8R
LEWES DE         1100   78 72  250/  6/  7 1012.8R
15NM E FENWICK I 1150   78 79  210/ 17/ 21 1013.1F   6/ 7   2/11
OCEAN-CITY-INLET 1100   79 78  240/ 12/ 14 1012.6R
WACHAPREAGUE VA  1100   78 82  240/  8/ 14 1014.2S
GOOSES REEF MD   1200   79 82  220/  8/ 10 1014.1F
COVE POINT MD    1100   77     290/  6/ 12 1014.3R
SOLOMONS ISLAND  1100      83                N/A
BISHOPS HEAD MD  1100   80 80  220/ 18/ 20 1012.0S
PINEY POINT MD   1100          240/ 11/ 15   N/A
POTOMAC MD       1200   80 83  270/ 14/ 17 1012.5R   2/ 3
CAMBRIDGE MD     1100   78 84  230/  5/  7 1012.7R
LEWISETTA VA     1100   78 83  240/ 12/ 16 1012.7R
RAPPAHANNOCK LGT 1100          220/ 22/ 26 1014.3R
STINGRAY PT      1200   80 83  240/ 16/ 19 1014.2R   2/ 3
YORK RVR RNG VA  1100   78     240/ 16/ 19 1013.9F
YORKTOWN VA      1100   77 83  220/ 12/ 18 1014.1R
JAMESTOWN VA     1200   78 85  220/ 12/ 16   N/A
DOMINION TERM VA 1100   77     240/ 15/ 19 1014.7R
KIPTOPEKE VA     1100      81  240/ 16/ 20   N/A
CHES BAY BRIDGE  1100   78 80  210/ 13/ 15 1014.7R
CAPE HENRY VA    1100   77     230/  8/ 12   N/A
CHESAPEAKE LGHT  1100   77     240/ 13/ 14 1016.1R
WILLOUBY STN VA  1100   77     230/ 11/ 13 1016.0S
CAPE HENRY BUOY  1128      77                N/A     3/ 6
1ST LANDING BUOY 1200      80              1015.0S   2/ 3
CAPE CHARLES BUO 1126      71                N/A     3/11   2/11
OFFSHORE WE BUOY 1111      81                N/A     5/ 6   3/ 6
64NM E OF VA BCH 1150   81 80  220/ 14/ 17 1015.6R   5/ 7   3/ 7
DUCK PIER NC     1100   80 63  230/ 13/ 16 1015.4R
44100 DUCK FRF   1124      77                N/A     3/ 6
44056 DUCK FRF   1111      71                N/A     2/ 6
OREGON INLET NC  1100   81 80  210/ 13/ 16 1016.1R
HATTERAS NC      1100   79 78  200/  5/  9 1016.1R
DIAMOND SHLS NC  1150   83 84  200/ 16/ 19 1016.6R   4/ 7   2/ 7
CAPE LOOKOUT NC  1200   81     180/ 12/ 13 1016.5R
$$


USA.gov is the U.S. government's official web portal to all federal, state and local government web resources and services.